Regional Weather Roundup
Issued by NWS Bismarck, ND

Home | Current Version | Previous Version | Text Only | Print | Product List | Glossary On
Versions: 1 2 3 4 5 6 7 8 9 10 11 12 13 14 15 16 17 18 19 20 21 22 23 24 25 26 27 28 29 30 31 32 33 34 35 36 37 38 39 40 41 42 43 44 45 46 47 48 49 50
000
ASUS43 KBIS 230959
RWRBIS

NWR BROADCAST TEXT
NATIONAL WEATHER SERVICE BISMARCK ND
500 AM CDT TUE SEP 23 2014

NOTE: "FAIR" INDICATES FEW OR NO CLOUDS BELOW 12,000 FEET WITH NO
SIGNIFICANT WEATHER AND/OR OBSTRUCTIONS TO VISIBILITY.


CITY           SKY/WX    TMP DP  RH WIND       PRES   REMARKS
WILLISTON      CLEAR     50  47  89 N5        29.85S
MINOT          CLEAR     53  48  83 SE8       29.89S
MINOT AFB      NOT AVBL
BISMARCK       CLEAR     56  53  90 S8        29.91S
DICKINSON      CLEAR     50  47  89 E7        29.85F
GARRISON         N/A     55  52  89 SE8       29.89F
HETTINGER ARPT PTCLDY    52  49  89 SE5       29.89S
JAMESTOWN      NOT AVBL
HARVEY         FAIR      52  50  93 SE9       29.93F
HAZEN          FAIR      52  48  87 CALM      29.90S
LINTON         FAIR      55  54  94 S15G21    29.93R
OAKES            N/A     55  54  94 SE8       30.01S
RUGBY          FAIR      55  50  82 SE8       29.93S
WATFORD CITY   FAIR      48  46  93 CALM      29.84S
$$

CITY           SKY/WX    TMP DP  RH WIND       PRES   REMARKS
GRAND FORKS    CLEAR     51  48  89 S8        30.01S
GRAND FORKS AF NOT AVBL
DEVILS LAKE    CLEAR     55  46  71 SE7       29.96S
FARGO          CLEAR     57  48  72 SE10      30.04R
CAVALIER       FAIR      48  46  93 S6        30.00R
GRAFTON        FAIR      48  46  93 SE7       30.01S
GWINNER        MOSUNNY   57  54  88 S7        30.03S
LANGDON        FAIR      55  48  76 S9        29.98S
$$

CITY           SKY/WX    TMP DP  RH WIND       PRES   REMARKS
ABERDEEN       CLEAR     59  51  75 S10       30.00F
MOBRIDGE       CLOUDY    63  55  75 S14       29.91S
RAPID CITY     CLOUDY    57  55  93 CALM      29.91R
GLASGOW        CLEAR     53  46  77 E12       29.82F
SIDNEY         CLEAR     48  46  93 CALM      29.85F
WOLF POINT     CLEAR     49  45  86 CALM      29.84S
GLENDIVE       PTCLDY    52  46  82 NW5       29.86S
MILES CITY     PTCLDY    54  47  77 S3        29.86R
BAKER          PTCLDY    53  49  86 E3        29.87S
$$

CITY           SKY/WX    TMP DP  RH WIND       PRES   REMARKS
BILLINGS       PTCLDY    61  47  59 SW15      29.95R
GREAT FALLS    CLEAR     60  48  64 SW13      29.95S
$$




USA.gov is the U.S. government's official web portal to all federal, state and local government web resources and services.